Presure
220 219 217 219 224 222 216 211 198 85 92 213 208 193 98 226 248 238 225 222 166 107 84 103 99 105 87 83 93 115 94 88 194 199 84 143 170 97 84 90 102 111 146
207 203 220 217 215 216 216 212 185 232 204 194 159 197 193 195 211 135 187 99 103 103 133 156 91 88 85 88 85 100 125 196 193 192 152 185 187 158 186 108 184 176 162
203 205 209 218 212 216 215 214 173 206 210 225 214 223 205 212 201 201 187 212 225 216 145 205 230 85 161 168 175 223 239 208 194 88 173 100 97 97 182 189 151 138 168
198 209 202 202 212 217 217 216 207 219 184 168 216 192 209 83 109 224 232 239 219 194 124 215 203 235 231 238 240 227 238 238 201 189 120 104 132 119 104 163 189 179 187
207 208 206 206 204 232 232 218 216 201 219 221 219 207 225 210 194 233 238 231 228 234 208 210 220 217 237 185 195 240 115 179 96 201 193 134 103 181 178 180 181 185 179
211 214 217 223 230 235 233 229 202 215 210 213 222 219 207 211 209 215 228 247 228 221 225 209 208 259 248 176 229 225 236 225 195 216 216 203 198 192 182 178 179 177 188
225 229 215 234 246 251 255 246 235 225 221 217 218 213 212 210 206 206 235 240 232 233 230 226 207 190 252 216 187 182 233 232 227 220 141 129 216 204 137 195 191 190 188
234 242 266 141 142 257 252 252 255 232 222 213 195 207 204 204 213 231 224 143 242 220 209 142 96 225 108 104 236 229 232 183 95 223 219 218 214 212 207 200 196 192 193
166 261 238 230 249 243 241 150 244 243 238 236 238 129 220 210 230 231 231 233 240 218 227 229 218 258 250 240 234 229 224 89 234 223 220 217 216 210 201 203 196 193 190
163 257 261 200 108 265 260 260 263 257 251 248 242 233 227 234 205 230 227 233 240 226 207 222 237 252 225 241 235 228 220 222 225 226 222 218 215 214 210 202 204 202 200
78 262 242 273 267 234 259 252 248 243 242 261 260 249 242 243 238 231 228 235 236 225 221 228 220 269 248 238 233 227 220 217 215 220 218 219 212 213 213 210 206 205 204
309 183 310 312 307 120 281 285 282 224 325 223 235 248 249 246 238 231 230 236 228 213 222 224 224 257 246 239 229 225 219 217 215 217 217 218 216 214 215 212 211 210 215
325 332 339 363 121 115 394 291 290 267 304 300 228 224 226 217 227 233 233 230 225 215 222 221 240 244 251 235 227 225 218 216 216 219 217 219 219 219 217 217 218 220 220
347 341 344 381 123 129 211 338 336 287 278 310 271 235 217 207 221 231 229 228 223 220 223 225 214 244 243 237 228 225 220 217 216 218 218 221 222 223 222 223 221 220 220
361 348 327 358 302 135 182 305 140 275 287 303 254 251 226 219 220 224 228 224 219 216 214 215 234 237 240 239 234 226 221 218 218 223 225 225 223 222 221 222 221 204 195
366 361 384 366 338 325 303 307 305 289 280 285 262 243 233 220 218 228 223 215 185 204 205 221 234 229 239 241 236 228 220 215 214 215 215 218 220 224 222 202 195 197 201
406 411 400 350 298 307 321 346 317 286 275 264 249 235 216 219 226 226 215 213 205 215 211 233 237 233 238 242 241 228 217 213 212 214 219 222 222 200 191 197 198 204 212
270 273 279 283 282 283 283 281 276 265 254 247 235 229 218 224 191 218 210 204 216 211 224 237 231 234 241 242 237 216 214 214 218 220 221 200 193 195 202 204 208 219 240
252 257 259 259 257 258 256 251 246 240 233 226 221 222 222 208 211 203 211 216 206 235 238 240 237 241 232 223 215 212 217 220 220 191 195 197 198 204 209 219 216 272 278
241 239 240 237 236 234 232 230 228 225 224 224 220 220 220 211 217 209 230 229 233 229 239 240 223 214 210 206 216 218 177 191 193 194 199 204 214 220 235 279 274 266 248
239 236 237 228 236 226 225 223 225 161 215 215 215 210 216 209 215 226 242 236 244 238 215 209 204 208 214 210 191 191 195 196 198 204 213 222 237 276 268 257 236 236 244
227 227 229 228 222 214 219 214 216 225 218 201 204 206 208 217 234 241 236 217 208 204 208 213 212 197 190 186 193 198 200 209 217 218 243 267 264 250 237 239 234 251 288
236 224 214 216 206 208 206 206 205 210 212 211 218 235 244 245 219 209 201 207 212 210 192 188 184 188 194 197 204 210 218 220 249 266 258 243 233 235 235 250 254 410 390
244 253 247 248 246 235 228 228 237 251 257 258 242 217 209 204 207 177 205 188 185 183 185 192 196 201 207 209 219 210 257 264 252 238 232 221 228 242 260 435 403 379 358
235 237 239 246 256 258 251 245 225 215 208 204 204 197 191 184 188 184 182 185 190 194 198 203 206 211 217 228 255 257 244 235 227 220 220 232 246 389 423 394 371 350 336
211 209 210 210 209 208 206 206 207 206 207 208 208 197 183 183 187 190 192 198 201 206 206 216 216 238 257 250 240 229 226 221 223 231 245 313 467 416 385 362 343 332 322
Wind_Speed
72 72 73 73 71 72 72 70 65 38 45 61 60 64 56 58 61 64 64 64 60 53 31 54 40 48 41 34 48 58 49 46 69 66 39 58 61 53 47 56 63 69 67
73 74 71 74 74 73 75 74 73 65 69 69 66 64 66 66 64 59 63 51 56 57 63 49 38 41 43 48 41 59 61 69 70 69 62 69 69 65 67 67 64 65 66
76 76 73 72 76 76 77 77 71 69 64 66 64 60 64 67 67 50 60 63 66 64 56 68 68 40 61 64 68 71 74 73 71 50 65 59 56 57 72 68 66 66 73
81 80 79 78 77 77 79 79 77 76 73 79 67 70 64 37 42 60 59 58 62 63 61 67 67 70 70 72 71 70 69 71 72 70 64 65 63 67 67 71 69 69 70
85 85 84 82 78 83 82 83 81 76 76 71 67 68 62 67 71 62 58 59 62 61 67 66 68 68 70 68 72 71 59 65 61 72 71 63 67 77 74 77 74 74 75
91 92 92 92 92 90 87 87 78 83 82 73 74 66 71 65 68 65 60 55 60 66 65 67 67 64 68 65 71 71 71 71 71 72 76 76 76 75 77 78 78 79 80
97 97 87 95 95 91 89 89 86 84 85 83 74 73 69 69 70 66 62 58 58 57 61 64 69 69 66 68 70 72 70 71 72 74 64 64 78 78 67 76 77 78 82
100 101 96 60 60 91 88 88 84 84 84 84 81 74 70 74 73 70 65 58 55 62 57 53 48 62 57 63 68 69 70 65 55 74 77 79 79 79 79 78 77 77 80
49 95 83 80 89 88 89 66 84 81 86 85 88 41 75 71 73 68 64 64 57 61 57 58 64 62 66 67 67 68 69 55 73 75 77 79 80 81 81 81 81 80 79
50 95 95 70 29 93 90 91 89 84 85 85 83 78 76 76 63 67 65 64 57 56 62 60 61 63 65 68 69 68 69 71 74 75 78 79 81 83 84 84 86 86 84
17 100 93 105 102 86 90 83 85 78 75 74 69 70 70 71 65 64 64 63 57 57 58 57 61 59 64 68 69 70 71 72 74 77 79 81 83 85 86 87 89 90 90
93 53 99 102 106 38 95 90 81 65 67 66 67 66 63 59 58 59 62 60 55 60 58 59 60 57 64 69 69 70 72 73 75 77 80 83 84 87 88 90 92 94 96
76 71 75 68 39 26 56 93 85 66 64 69 68 64 57 57 56 55 58 56 54 59 59 59 55 56 60 66 69 71 72 73 75 78 81 83 85 88 90 92 94 96 97
59 48 51 32 37 46 37 47 50 63 59 64 66 60 57 57 56 53 54 53 56 56 57 58 62 54 59 65 69 70 70 72 75 78 80 83 85 88 90 92 94 96 97
36 35 40 25 32 49 23 47 23 47 58 57 54 54 55 56 55 53 52 52 53 55 57 60 59 58 58 63 68 68 68 70 74 77 80 82 85 87 90 92 94 93 94
21 24 20 23 33 41 42 36 38 43 45 50 50 49 50 53 53 50 50 50 55 55 58 59 58 60 59 62 67 68 66 69 73 76 80 82 86 88 90 88 91 97 101
9 5 10 27 24 29 25 33 33 37 39 41 43 43 44 48 48 48 46 49 52 55 57 58 58 58 59 60 63 66 65 70 74 77 80 84 87 84 86 93 97 103 109
40 40 41 38 33 29 27 26 26 26 30 33 36 40 42 43 40 43 46 48 52 52 57 57 55 57 57 56 60 62 67 71 75 79 82 80 84 90 95 97 103 112 123
34 35 35 35 32 29 27 26 25 25 26 29 33 35 36 36 39 41 46 48 49 54 54 53 53 52 52 55 59 63 68 72 76 74 81 86 90 96 101 107 108 118 117
27 27 28 27 25 22 21 21 22 21 23 24 26 30 33 36 40 40 49 48 48 49 49 47 46 49 53 57 63 66 64 70 77 82 87 92 99 105 113 112 112 115 112
20 21 22 21 19 13 13 12 13 25 20 21 26 29 32 32 37 41 45 43 44 42 42 46 49 54 58 61 62 66 72 77 83 89 96 103 109 108 109 112 105 106 111
15 15 16 15 15 14 15 16 11 13 20 20 22 28 34 38 41 40 35 35 39 43 47 50 54 55 59 63 70 75 80 86 93 97 107 104 105 107 107 108 106 118 109
7 11 11 11 10 10 10 11 13 18 24 27 30 34 35 33 29 32 36 40 43 47 48 52 55 60 66 71 77 83 88 93 103 97 100 101 102 106 106 116 121 55 57
4 2 4 10 14 18 19 20 22 25 26 25 21 21 25 29 32 35 39 41 45 49 54 60 65 69 75 78 84 85 95 92 94 98 100 97 103 113 116 42 49 54 59
8 7 7 7 8 8 10 11 11 13 15 19 22 26 29 32 35 39 43 47 52 58 62 67 71 77 81 88 88 87 90 93 94 96 99 108 116 77 40 47 51 56 61
1 1 2 4 5 7 9 12 14 18 21 24 27 30 33 38 42 46 50 55 60 65 68 74 78 86 78 81 85 88 90 91 97 106 113 111 28 34 42 48 54 58 63
Wind_Direction
257 260 263 266 266 266 263 260 253 244 249 263 260 258 253 271 267 267 267 266 261 257 263 263 265 267 273 277 277 275 281 284 272 275 292 282 282 289 296 294 293 289 288
260 260 259 261 263 264 265 262 251 262 258 252 251 255 257 261 263 256 263 259 258 258 261 268 266 271 280 281 282 276 275 269 270 273 278 276 278 281 281 289 286 285 287
258 260 260 260 260 260 261 262 255 255 260 266 262 265 261 263 261 270 263 263 265 265 268 265 267 275 269 270 271 269 269 270 269 289 274 285 288 289 280 282 288 287 283
260 260 259 259 259 258 258 260 262 263 248 260 262 257 261 259 262 266 265 268 265 265 262 266 267 270 270 269 269 269 270 269 270 270 280 285 282 287 291 282 283 282 282
260 262 263 263 260 262 257 258 258 260 262 262 261 260 265 262 258 272 270 265 265 265 264 265 268 268 268 270 271 271 275 272 279 272 272 277 289 273 276 279 280 282 283
263 263 263 263 263 261 258 256 258 257 260 257 261 262 259 260 262 264 270 272 264 263 264 266 267 261 264 271 270 270 270 270 273 272 272 272 272 273 274 276 279 280 282
265 265 263 265 266 265 262 257 254 257 259 263 263 259 262 264 260 269 275 273 266 266 264 266 266 269 264 268 272 274 271 270 270 271 280 283 274 275 281 277 279 282 284
265 266 267 258 260 261 258 258 255 255 258 260 260 257 262 262 266 272 270 267 274 264 265 267 268 265 272 275 269 271 271 273 285 271 271 273 274 275 276 277 278 280 281
258 267 264 262 260 259 260 250 257 254 255 257 259 261 264 266 267 270 272 273 273 265 269 271 267 263 264 267 269 270 271 283 270 271 272 273 274 276 278 278 280 280 281
271 267 267 266 271 258 255 257 258 255 253 255 257 259 261 263 265 266 268 270 271 268 268 270 271 265 268 265 267 270 271 272 272 272 273 274 276 276 278 280 280 282 282
305 268 266 264 262 263 259 253 255 254 252 252 252 252 253 256 258 260 264 267 268 267 269 273 272 273 264 266 266 268 270 271 273 274 275 275 276 278 279 280 282 283 284
267 275 263 259 258 282 258 256 256 252 237 246 246 246 247 250 253 257 261 265 266 267 270 272 273 273 267 267 268 268 269 271 272 274 275 276 277 279 280 281 283 285 286
274 272 268 273 263 270 219 248 252 252 239 226 240 244 247 252 253 254 258 263 266 269 272 274 279 278 274 267 266 268 269 271 273 274 275 277 278 279 281 282 284 285 287
278 275 266 269 271 280 255 211 220 230 235 221 227 239 245 252 254 253 257 263 266 270 274 276 277 279 274 270 267 268 270 272 274 275 277 278 280 281 283 285 287 288 289
296 257 268 227 223 271 257 206 247 228 222 217 228 231 240 246 251 255 258 263 269 274 277 280 282 282 279 275 271 271 272 274 276 278 279 280 282 284 287 288 289 292 294
322 265 249 199 187 175 187 194 200 207 210 211 218 226 232 242 251 254 258 265 262 273 276 282 282 282 282 278 275 274 276 278 279 281 283 285 287 288 289 292 294 293 293
39 140 149 155 152 169 168 168 173 190 197 206 212 222 236 244 250 255 264 269 271 277 279 284 284 284 285 283 280 278 279 280 281 284 286 287 289 293 294 294 294 295 296
67 73 79 89 103 116 130 145 159 174 189 200 213 225 239 246 269 262 266 271 275 277 285 284 284 285 288 287 283 280 281 284 286 287 288 293 294 294 294 297 297 297 298
77 82 90 97 103 113 125 137 151 167 190 207 221 232 241 252 258 265 269 274 276 283 284 286 287 289 288 284 282 285 286 287 288 296 295 294 295 297 296 299 299 300 299
91 99 105 111 118 126 140 159 173 187 206 220 232 242 248 259 264 271 276 281 281 281 285 285 286 283 285 287 288 288 290 296 295 293 295 297 297 298 300 301 299 299 302
104 106 115 118 106 134 152 173 190 252 223 230 240 252 259 263 271 278 280 280 282 282 282 284 286 287 288 288 295 295 295 294 296 297 298 299 301 301 300 300 303 305 306
110 112 112 128 142 167 164 196 213 219 243 237 255 266 272 277 278 280 279 279 280 283 285 287 286 292 297 296 296 297 298 298 300 300 300 300 299 301 303 304 306 308 308
133 139 147 153 200 202 204 208 232 243 248 257 262 265 266 265 268 274 279 283 285 285 294 296 296 296 296 297 297 298 299 300 300 300 299 302 304 303 305 307 308 312 312
58 318 180 188 206 207 221 232 240 245 246 244 244 253 264 272 276 279 283 294 296 296 297 296 297 298 298 299 300 301 300 301 301 304 305 305 305 307 307 311 312 313 313
121 119 134 168 173 197 199 210 214 233 250 262 267 270 273 288 292 294 293 296 296 298 299 299 299 300 302 301 301 301 301 304 307 307 305 305 305 312 314 314 314 314 313
90 227 210 228 242 252 259 259 259 264 265 268 270 281 291 293 293 294 297 299 300 300 300 301 301 300 301 299 300 303 306 309 308 305 304 311 312 314 314 314 314 315 314